FW9022 Weather Reports


time (UTC)temp
C
wind
direction
speed
KPH
gust
KPH
rain 1hr
cm
rain 24hr
cm
rain mn
cm
humidity
%
barometer
mb
20260906061819 21 236 0.0 1.6 0.00 0.00 0.00 97 1015.2
20260906060844 21 236 0.0 0.0 0.00 0.00 0.00 97 1015.5
20260906055840 21 236 0.0 0.0 0.00 0.00 0.00 97 1015.4
20260906054829 21 236 0.0 0.0 0.00 0.00 0.00 97 1015.4
20260906053839 21 236 0.0 0.0 0.00 0.00 0.00 97 1015.7
20260906052828 21 236 0.0 0.0 0.00 0.00 0.00 97 1015.8
20260906051822 21 236 0.0 0.0 0.00 0.00 0.00 97 1015.8
20260906050845 21 236 0.0 0.0 0.00 0.00 0.00 96 1015.3
20260906045822 21 236 0.0 1.6 0.00 0.00 0.00 97 1015.3
20260906044836 21 236 0.0 1.6 0.00 0.00 0.00 96 1015.3
20260906043827 21 252 0.0 1.6 0.00 0.00 0.00 96 1015.3
20260906042817 21 252 0.0 1.6 0.00 0.00 0.00 96 1015.4
20260906041848 21 252 0.0 0.0 0.00 0.00 0.00 96 1015.4
20260906040832 21 252 0.0 0.0 0.00 0.00 0.00 96 1015.9
20260906035848 22 252 0.0 1.6 0.00 0.00 0.00 96 1016.0
20260906034854 22 252 0.0 1.6 0.00 0.00 0.00 96 1016.0
20260906033824 22 252 0.0 0.0 0.00 0.00 0.00 96 1016.5
20260906032854 22 252 0.0 0.0 0.00 0.00 0.00 95 1016.5
20260906031829 22 252 0.0 1.6 0.00 0.00 0.00 95 1016.5
20260906030850 22 252 0.0 0.0 0.00 0.00 0.00 95 1016.5
20260906025826 22 252 0.0 0.0 0.00 0.00 0.00 95 1016.4
20260906024821 22 252 0.0 0.0 0.00 0.00 0.00 95 1016.4
20260906023831 22 252 0.0 0.0 0.00 0.00 0.00 95 1016.3
20260906022841 22 252 0.0 0.0 0.00 0.00 0.00 95 1016.0
20260906021830 22 252 0.0 0.0 0.00 0.00 0.00 95 1016.0
20260906020836 22 252 0.0 1.6 0.00 0.00 0.00 94 1015.2
20260906015832 22 252 0.0 1.6 0.00 0.00 0.00 94 1014.8
20260906014823 22 252 0.0 1.6 0.00 0.00 0.00 93 1014.8
20260906013833 22 252 0.0 0.0 0.00 0.00 0.00 93 1014.9
20260906012829 22 252 0.0 1.6 0.00 0.00 0.00 93 1014.8
20260906011819 23 252 0.0 0.0 0.00 0.00 0.00 92 1014.8
20260906010840 23 252 0.0 1.6 0.00 0.00 0.00 92 1015.1
20260906005817 23 252 0.0 1.6 0.00 0.00 0.00 91 1015.1
20260906004832 23 252 0.0 0.0 0.00 0.00 0.00 91 1015.1
20260906003822 23 252 0.0 1.6 0.00 0.00 0.00 89 1014.8
20260906002833 24 252 0.0 1.6 0.00 0.00 0.00 88 1014.7
20260906001845 24 252 0.0 0.0 0.00 0.00 0.00 88 1014.7
20260906000849 25 252 0.0 0.0 0.00 0.00 0.00 87 1014.8
20260905235845 25 252 0.0 0.0 0.00 0.00 0.00 84 1014.5
20260905234834 26 252 0.0 0.0 0.00 0.00 0.00 83 1014.5
20260905233824 26 252 0.0 0.0 0.00 0.00 0.00 81 1014.4
20260905232818 26 252 0.0 0.0 0.00 0.00 0.00 80 1014.3
20260905231829 27 252 0.0 0.0 0.00 0.00 0.00 78 1014.3
20260905230912 27 252 0.0 0.0 0.00 0.00 0.00 77 1014.2
20260905225826 27 252 0.0 0.0 0.00 0.00 0.00 78 1014.1
20260905224841 27 252 0.0 0.0 0.00 0.00 0.00 76 1014.1
20260905223831 27 252 0.0 0.0 0.00 0.00 0.00 75 1014.1
20260905222822 27 252 0.0 6.4 0.00 0.00 0.00 74 1014.2
20260905221832 28 157 0.0 1.6 0.00 0.00 0.00 73 1014.2
20260905220838 28 157 0.0 1.6 0.00 0.00 0.00 72 1014.3
20260905215833 27 157 0.0 3.2 0.00 0.00 0.00 73 1014.3
20260905214825 28 217 3.2 4.8 0.00 0.00 0.00 72 1014.3
20260905213820 28 254 0.0 4.8 0.00 0.00 0.00 70 1014.8
20260905212831 28 286 0.0 6.4 0.00 0.00 0.00 71 1014.9
20260905211825 28 168 0.0 3.2 0.00 0.00 0.00 71 1014.9
20260905210906 28 165 0.0 0.0 0.00 0.00 0.00 72 1015.0
20260905205828 27 165 0.0 1.6 0.00 0.00 0.00 75 1015.1
20260905204822 27 215 0.0 4.8 0.00 0.00 0.00 76 1015.1
20260905203835 27 211 0.0 3.2 0.00 0.00 0.00 77 1015.1
20260905202849 26 228 0.0 0.0 0.00 0.00 0.00 79 1015.4
20260905201846 26 228 4.8 8.0 0.00 0.00 0.00 79 1015.4
20260905200848 26 144 0.0 6.4 0.00 0.00 0.00 82 1015.6
20260905195827 25 257 0.0 0.0 0.00 0.00 0.00 83 1016.2
20260905194819 25 257 0.0 3.2 0.00 0.00 0.00 84 1016.2
20260905193837 25 227 0.0 1.6 0.00 0.00 0.00 86 1016.4
20260905192830 25 228 0.0 1.6 0.00 0.00 0.00 86 1016.5
20260905191845 25 228 0.0 0.0 0.00 0.00 0.00 86 1016.5
20260905190847 24 228 0.0 4.8 0.00 0.00 0.00 85 1016.4
20260905185832 24 230 0.0 6.4 0.00 0.00 0.00 86 1016.9
20260905184825 24 256 3.2 6.4 0.00 0.00 0.00 85 1016.9
20260905183839 25 240 0.0 1.6 0.00 0.00 0.00 81 1016.9
20260905182835 25 240 0.0 3.2 0.00 0.00 0.00 75 1016.9
20260905181829 24 244 1.6 4.8 0.00 0.00 0.00 77 1016.9
20260905180913 23 227 1.6 4.8 0.00 0.00 0.00 81 1018.1
20260905175831 23 45 0.0 8.0 0.00 0.00 0.00 79 1016.7
20260905174829 25 101 0.0 6.4 0.00 0.00 0.00 78 1016.7
20260905173823 25 222 1.6 3.2 0.00 0.00 0.00 77 1016.9
20260905172837 25 5 0.0 1.6 0.00 0.00 0.00 79 1017.1
20260905171851 26 270 3.2 9.7 0.00 0.00 0.00 76 1017.1
20260905170838 28 252 1.6 4.8 0.00 0.00 0.00 73 1016.7
20260905165819 29 313 0.0 1.6 0.00 0.00 0.00 72 1017.1
20260905164832 30 313 0.0 4.8 0.00 0.00 0.00 69 1017.1
20260905163831 30 9 1.6 8.0 0.00 0.00 0.00 65 1017.0
20260905162826 30 27 3.2 8.0 0.00 0.00 0.00 65 1017.3
20260905161820 30 5 3.2 8.0 0.00 0.00 0.00 67 1017.3
20260905160844 30 29 3.2 8.0 0.00 0.00 0.00 66 1017.4
20260905155826 30 360 3.2 9.7 0.00 0.00 0.00 67 1017.5
20260905154819 30 5 4.8 8.0 0.00 0.00 0.00 66 1017.5
20260905153833 31 78 3.2 4.8 0.00 0.00 0.00 69 1017.3
20260905152830 31 25 3.2 6.4 0.00 0.00 0.00 66 1017.1
20260905151824 30 147 1.6 3.2 0.00 0.00 0.00 67 1017.1
20260905150849 30 147 0.0 3.2 0.00 0.00 0.00 70 1017.0
20260905145829 30 146 0.0 0.0 0.00 0.00 0.00 73 1017.2
20260905144827 29 147 0.0 0.0 0.00 0.00 0.00 75 1017.2
20260905143841 29 146 0.0 3.2 0.00 0.00 0.00 75 1017.3
20260905142834 28 146 0.0 3.2 0.00 0.00 0.00 76 1017.5
20260905141849 28 146 0.0 3.2 0.00 0.00 0.00 79 1017.5
20260905140836 28 146 1.6 3.2 0.00 0.00 0.00 77 1017.7
20260905135835 27 147 3.2 4.8 0.00 0.00 0.00 78 1016.8
20260905134829 26 168 0.0 3.2 0.00 0.00 0.00 81 1016.8
20260905133839 26 200 0.0 1.6 0.00 0.00 0.00 84 1017.3
20260905132831 25 200 0.0 1.6 0.00 0.00 0.00 86 1017.4
20260905131824 25 200 0.0 1.6 0.00 0.00 0.00 88 1017.4
20260905130909 23 200 0.0 0.0 0.00 0.00 0.00 92 1017.5
20260905125830 22 200 0.0 1.6 0.00 0.00 0.00 96 1017.9
20260905124838 21 200 0.0 0.0 0.00 0.00 0.00 98 1017.9
20260905123830 21 200 0.0 0.0 0.00 0.00 0.00 98 1018.0
20260905122824 20 200 0.0 0.0 0.00 0.00 0.00 98 1018.0
20260905121823 20 200 0.0 0.0 0.00 0.00 0.00 98 1018.0
20260905120848 20 200 0.0 0.0 0.00 0.00 0.00 98 1017.7
20260905115827 19 200 0.0 0.0 0.00 0.00 0.00 98 1017.6
20260905114858 19 200 0.0 0.0 0.00 0.00 0.00 98 1017.6
20260905113836 19 200 0.0 0.0 0.00 0.00 0.00 98 1017.5
20260905112830 19 200 0.0 0.0 0.00 0.00 0.00 98 1017.3
20260905111825 19 200 0.0 0.0 0.00 0.00 0.00 98 1017.3
20260905110854 19 200 0.0 1.6 0.00 0.00 0.00 98 1016.5
20260905105833 19 200 0.0 1.6 0.00 0.00 0.00 97 1016.5
20260905104827 19 200 0.0 0.0 0.00 0.00 0.00 98 1016.5
20260905103821 19 200 0.0 0.0 0.00 0.00 0.00 98 1016.4
20260905102819 19 200 0.0 0.0 0.00 0.00 0.00 98 1016.1
20260905101834 19 200 0.0 0.0 0.00 0.00 0.00 97 1016.1
20260905100859 19 200 0.0 0.0 0.00 0.00 0.00 97 1015.8
20260905095857 20 200 0.0 0.0 0.00 0.00 0.00 97 1015.9
20260905094834 20 200 0.0 0.0 0.00 0.00 0.00 98 1015.9
20260905093829 20 200 0.0 0.0 0.00 0.00 0.00 97 1015.8
20260905092823 20 200 0.0 0.0 0.00 0.00 0.00 97 1016.0
20260905091857 20 200 0.0 0.0 0.00 0.00 0.00 97 1016.0
20260905090844 20 200 0.0 0.0 0.00 0.00 0.00 97 1016.2
20260905085824 20 200 0.0 0.0 0.00 0.00 0.00 97 1017.0
20260905084858 20 200 0.0 0.0 0.00 0.00 0.00 97 1017.0
20260905083831 20 200 0.0 0.0 0.00 0.00 0.00 97 1017.1
20260905082850 20 200 0.0 0.0 0.00 0.00 0.00 97 1017.1
20260905081822 20 200 0.0 0.0 0.00 0.00 0.00 97 1017.1
20260905080846 20 200 0.0 0.0 0.00 0.00 0.00 97 1017.2
20260905075830 20 200 0.0 0.0 0.00 0.00 0.00 97 1017.3
20260905074823 20 200 0.0 0.0 0.00 0.00 0.00 97 1017.3
20260905073838 20 200 0.0 0.0 0.00 0.00 0.00 97 1017.4
20260905072830 20 200 0.0 0.0 0.00 0.00 0.00 97 1017.5
20260905071828 20 200 0.0 0.0 0.00 0.00 0.00 97 1017.5
20260905070851 20 200 0.0 0.0 0.00 0.00 0.00 96 1017.3
20260905065830 21 200 0.0 0.0 0.00 0.00 0.00 97 1017.4
20260905064823 21 200 0.0 0.0 0.00 0.00 0.00 97 1017.4
20260905063821 21 200 0.0 0.0 0.00 0.00 0.00 97 1017.4
20260905062834 21 200 0.0 0.0 0.00 0.00 0.00 96 1017.6